• Join FlightAware (Why Join?)
  • Login
  • US Flag 
Rudolph Flight #1: Arrived! 
06:03AM EST


 

Airport Tracker/Info


-or-


 

Live Flight TrackerFlight Track Log ✈ UAL656 ✈ 26-Jan-2014 ✈ KORD - KALB

Flight Track Log - Related Links

Times and Time Zones

All times are in EST time to prevent confusion due to time zone crossing. See the UAL656 flight status page for this flight to view local times or setup timezone preferences in your user account.

Time Position Orientation Groundspeed Altitude Reporting Facility
EST Latitude Longitude Course Direction KTS MPH feet Rate Location/Type
02:27PM 42.0000 -87.9500 81° East 157 181 2,200  Level Chicago TRACON
02:28PM 42.0500 -87.9167 26° Northeast 243 280 5,000 3,240 Climbing Chicago TRACON
02:30PM 42.1169 -87.7789 57° Northeast 320 368 10,100 3,000 Climbing Chicago Center
02:31PM 42.1874 -87.2870 61° Northeast  Level FlightAware Approximate
02:31PM 42.1469 -87.6542 72° East 345 397 12,600  Level Chicago Center
02:32PM 42.2489 -87.1355 56° Northeast  Level FlightAware Approximate
02:32PM 42.1803 -87.5047 73° East 406 467 14,700  Level Chicago Center
02:33PM 42.2741 -86.9665 81° East  Level FlightAware Approximate
02:33PM 42.2164 -87.3467 73° East 436 502 17,400  Level Chicago Center
02:34PM 42.2531 -87.1806 73° East 458 527 20,200 2,340 Climbing Chicago Center
02:35PM 42.2831 -86.9900 78° East 490 564 22,300 1,860 Climbing Chicago Center
02:36PM 42.2900 -86.7992 87° East 510 587 24,100 2,040 Climbing Chicago Center
02:37PM 42.2969 -86.6069 87° East 513 590 26,600 2,340 Climbing Chicago Center
02:38PM 42.3047 -86.3869 87° East 514 592 28,900 1,920 Climbing Chicago Center
02:39PM 42.3122 -86.1911 87° East 524 603 30,600 1,380 Climbing Chicago Center
02:40PM 42.3136 -85.9914 89° East 535 616 31,800 1,140 Climbing Chicago Center
02:41PM 42.3111 -85.7847 91° East 551 634 33,000 540 Climbing Chicago Center
02:42PM 42.3089 -85.5825 91° East 547 629 33,000  Level Chicago Center
02:43PM 42.3058 -85.3822 91° East 541 623 33,000  Level Chicago Center
02:44PM 42.3022 -85.1792 91° East 543 625 33,000  Level Chicago Center
02:45PM 42.2983 -84.9347 91° East 546 628 33,000  Level Chicago Center
02:46PM 42.2928 -84.7322 92° East 546 628 33,000  Level Chicago Center
02:47PM 42.2881 -84.5300 92° East 544 626 33,000  Level Chicago Center
02:48PM 42.3028 -84.3494 84° East 542 624 33,000  Level Cleveland Center
02:49PM 42.3303 -84.1528 79° East 536 617 33,000  Level Cleveland Center
02:50PM 42.3581 -83.9542 79° East 536 617 33,000  Level Cleveland Center
02:51PM 42.3858 -83.7567 79° East 535 616 33,000 780 Level Cleveland Center
02:52PM 42.4089 -83.5500 81° East 535 616 34,700 960 Climbing Cleveland Center
02:53PM 42.4150 -83.3453 88° East 535 616 35,000 120 Climbing Cleveland Center
02:54PM 42.4231 -83.1389 87° East 544 626 35,000  Level Cleveland Center
02:55PM 42.4300 -82.9344 87° East 544 626 35,000  Level Cleveland Center
02:56PM 42.4369 -82.7317 87° East 543 625 35,000  Level Cleveland Center
02:57PM 42.4433 -82.4881 88° East 542 624 35,000  Level Cleveland Center
02:58PM 42.4492 -82.2853 88° East 541 623 35,000  Level Cleveland Center
03:00PM 42.4542 -82.0767 88° East 541 623 35,000  Level Cleveland Center
03:01PM 42.4597 -81.8786 88° East 542 624 35,000  Level Cleveland Center
03:02PM 42.4639 -81.6642 88° East 542 624 35,000  Level Cleveland Center
03:03PM 42.4675 -81.4583 89° East 542 624 35,000  Level Cleveland Center
03:04PM 42.4719 -81.2525 88° East 541 623 35,000  Level Cleveland Center
03:05PM 42.4756 -81.0133 89° East 541 623 35,000  Level Cleveland Center
03:06PM 42.4789 -80.8086 89° East 540 621 35,000  Level Cleveland Center
03:07PM 42.4831 -80.6075 88° East 532 612 35,000  Level Cleveland Center
03:08PM 42.4983 -80.4058 84° East 532 612 35,000  Level Cleveland Center
03:09PM 42.5108 -80.2033 85° East 533 613 35,000  Level Cleveland Center
03:10PM 42.5244 -80.0022 85° East 531 611 35,000  Level Cleveland Center
03:11PM 42.5364 -79.8072 85° East 532 612 35,000 -420 Level Cleveland Center
03:12PM 42.5497 -79.5683 86° East 531 611 34,200 -900 Descending Cleveland Center
03:13PM 42.5617 -79.3694 85° East 531 611 33,200 -600 Descending Cleveland Center
03:14PM 42.5731 -79.1656 86° East 518 596 33,000 -120 Descending Cleveland Center
03:15PM 42.5819 -78.9839 86° East 517 595 33,000 -60 Level Cleveland Center
03:16PM 42.5936 -78.7892 85° East 517 595 32,900 -540 Descending Cleveland Center
03:17PM 42.6036 -78.5950 86° East 517 595 31,900 -960 Descending Cleveland Center
03:18PM 42.6144 -78.3678 86° East 507 583 31,000 -780 Descending Cleveland Center
03:19PM 42.6233 -78.1831 86° East 497 572 30,300 -840 Descending Cleveland Center
03:20PM 42.6328 -77.9911 86° East 502 578 29,300 -660 Descending Cleveland Center
03:21PM 42.6411 -77.7986 87° East 509 586 29,000 -180 Descending Cleveland Center
03:22PM 42.6497 -77.6086 86° East 510 587 29,000  Level Cleveland Center
03:23PM 42.6581 -77.3972 87° East 507 583 29,000  Level Cleveland Center
03:24PM 42.6653 -77.2028 87° East 512 589 29,000  Level Cleveland Center
03:25PM 42.6728 -77.0114 87° East 511 588 29,000  Level Cleveland Center
03:26PM 42.6789 -76.8206 87° East 511 588 29,000  Level Cleveland Center
03:27PM 42.6872 -76.6133 87° East 509 586 29,000  Level Cleveland Center
03:28PM 42.6931 -76.4222 88° East 509 586 29,000 -300 Level Cleveland Center
03:29PM 42.6986 -76.2336 88° East 506 582 28,500 -840 Descending Cleveland Center
03:31PM 42.7056 -76.0097 88° East 500 575 27,300 -1,080 Descending Cleveland Center
03:32PM 42.7122 -75.8075 87° East 500 575 26,300 -1,080 Descending Cleveland Center
03:33PM 42.7169 -75.6325 88° East 502 578 25,100 -1,620 Descending Cleveland Center
03:34PM 42.7203 -75.4522 88° East 485 558 23,000 -2,040 Descending Cleveland Center
03:35PM 42.7331 -75.2792 84° East 469 540 20,900 -2,340 Descending Cleveland Center
03:36PM 42.7642 -75.0850 78° East 447 514 18,300 -2,580 Descending Cleveland Center
03:37PM 42.7917 -74.9003 78° East 433 498 15,300 -2,460 Descending Boston Center
03:37PM 42.7947 -74.8919 63° Northeast 437 503 15,200 -1,800 Descending Boston Center
03:38PM 42.8233 -74.7333 76° East 415 478 13,300 -1,740 Descending Boston Center
03:38PM 42.8261 -74.7225 71° East 417 480 13,300 -2,040 Level Boston Center
03:39PM 42.8517 -74.5764 77° East 398 458 11,200 -2,040 Descending Boston Center
03:39PM 42.8511 -74.5792 255° West 389 448 11,300 -240 Climbing Boston Center
03:40PM 42.8764 -74.4450 76° East 357 411 11,000 -300 Descending Boston Center
03:40PM 42.8761 -74.4475 261° West 346 398 11,000 -900 Level Boston Center
03:41PM 42.8986 -74.3211 76° East 340 391 10,100 -1,080 Descending Boston Center
03:41PM 42.8994 -74.3122 83° East 328 377 9,900 -2,220 Descending Boston Center
03:42PM 42.9200 -74.2011 76° East 330 380 7,900 -2,220 Descending Boston Center
03:42PM 42.9217 -74.1942 72° East 324 373 7,700 -1,500 Descending Boston Center
03:43PM 42.9408 -74.0944 75° East 295 339 6,400 -1,380 Descending Boston Center
03:43PM 42.9417 -74.0869 81° East 273 314 6,300 -960 Descending Boston Center
03:44PM 42.9575 -74.0133 74° East 236 272 5,500 -1,020 Descending Boston Center
03:44PM 42.9603 -73.9978 76° East 244 281 5,300 -1,380 Descending Boston Center
03:45PM 42.9761 -73.9233 74° East 220 253 4,100 -1,320 Descending Boston Center
03:45PM 42.9775 -73.9158 76° East 229 264 4,000 -1,260 Descending Boston Center
03:46PM 42.9450 -73.8519 125° Southeast 211 243 2,700 -1,020 Descending Boston Center
03:47PM 42.9019 -73.8133 147° Southeast 197 227 2,100 -600 Descending Boston Center
03:47PM 42.8981 -73.8128 174° South 202 232 2,100 -120 Level Boston Center
03:48PM 42.8553 -73.8092 176° South 154 177 2,000 -120 Descending Boston Center
03:48PM 42.8492 -73.8094 182° South 167 192 2,000 -420 Level Boston Center
03:49PM 42.8189 -73.8086 179° South 120 138 1,600 -540 Descending Boston Center
03:49PM 42.8142 -73.8078 173° South 133 153 1,500 -720 Descending Boston Center
03:50PM 42.7872 -73.8064 178° South 111 128 900 -720 Descending Boston Center
03:50PM 42.7828 -73.8064 180° South 118 136 800 -540 Descending Boston Center
03:51PM 42.7561 -73.8056 179° South 112 129 300 -540 Descending Boston Center